Year,Month,Day,Hour,Minute,Value (Times are PST for temperature in C)
2008,12,15,00,00,-5.00
2008,12,15,00,01,-5.10
2008,12,15,00,02,-5.10
2008,12,15,00,03,-5.10
2008,12,15,00,04,-5.10
2008,12,15,00,05,-5.10
2008,12,15,00,06,-5.10
2008,12,15,00,07,-5.10
2008,12,15,00,08,-5.10
2008,12,15,00,09,-5.10
2008,12,15,00,10,-5.10
2008,12,15,00,11,-5.10
2008,12,15,00,12,-5.00
2008,12,15,01,02,-5.20
2008,12,15,01,03,-5.30
2008,12,15,01,04,-5.30
2008,12,15,01,05,-5.30
2008,12,15,01,06,-5.30
2008,12,15,01,07,-5.30
2008,12,15,01,08,-5.40
2008,12,15,01,09,-5.40
2008,12,15,01,10,-5.50
2008,12,15,01,11,-5.50
2008,12,15,01,12,-5.50
2008,12,15,01,13,-5.60
2008,12,15,01,14,-5.60
2008,12,15,01,15,-5.70
2008,12,15,01,16,-5.70
2008,12,15,01,17,-5.80
2008,12,15,01,18,-5.80
2008,12,15,01,19,-5.90
2008,12,15,01,20,-5.90
2008,12,15,01,21,-5.90
2008,12,15,01,22,-5.90
2008,12,15,01,23,-6.10
2008,12,15,01,24,-6.10
2008,12,15,01,25,-6.10
2008,12,15,01,26,-6.10
2008,12,15,01,27,-6.10
2008,12,15,01,28,-6.20
2008,12,15,01,29,-6.20
2008,12,15,01,30,-6.20
2008,12,15,01,31,-6.20
2008,12,15,01,32,-6.20
2008,12,15,01,33,-6.20
2008,12,15,01,34,-6.20
2008,12,15,01,35,-6.30
2008,12,15,01,36,-6.30
2008,12,15,01,37,-6.40
2008,12,15,01,38,-6.40
2008,12,15,01,39,-6.40
2008,12,15,01,40,-6.50
2008,12,15,01,41,-6.50
2008,12,15,01,42,-6.50
2008,12,15,01,43,-6.50
2008,12,15,01,44,-6.60
2008,12,15,01,45,-6.60
2008,12,15,01,46,-6.60
2008,12,15,01,47,-6.70
2008,12,15,01,48,-6.70
2008,12,15,01,49,-6.70
2008,12,15,01,50,-6.70
2008,12,15,01,51,-6.70
2008,12,15,01,52,-6.80
2008,12,15,01,53,-6.80
2008,12,15,01,54,-6.80
2008,12,15,01,55,-6.90
2008,12,15,01,56,-6.90
2008,12,15,01,57,-6.90
2008,12,15,01,58,-7.00
2008,12,15,01,59,-7.00
2008,12,15,02,00,-7.00
2008,12,15,02,01,-7.00
2008,12,15,02,02,-7.00
2008,12,15,02,03,-7.00
2008,12,15,02,04,-7.00
2008,12,15,02,05,-7.00
2008,12,15,02,06,-7.00
2008,12,15,02,07,-7.00
2008,12,15,02,08,-7.00
2008,12,15,02,09,-7.10
2008,12,15,02,10,-7.10
2008,12,15,02,11,-7.10
2008,12,15,02,12,-7.10
2008,12,15,02,13,-7.10
2008,12,15,02,14,-7.10
2008,12,15,02,15,-7.10
2008,12,15,02,16,-7.10
2008,12,15,02,17,-7.10
2008,12,15,02,18,-7.10
2008,12,15,02,19,-7.10
2008,12,15,02,20,-7.10
2008,12,15,02,21,-7.10
2008,12,15,02,22,-7.10
2008,12,15,02,23,-7.10
2008,12,15,02,24,-7.10
2008,12,15,02,25,-7.20
2008,12,15,02,26,-7.20
2008,12,15,02,27,-7.20
2008,12,15,02,28,-7.20
2008,12,15,02,29,-7.20
2008,12,15,02,30,-7.20
2008,12,15,02,31,-7.20
2008,12,15,02,32,-7.30
2008,12,15,02,33,-7.30
2008,12,15,02,34,-7.20
2008,12,15,02,35,-7.20
2008,12,15,02,36,-7.20
2008,12,15,02,37,-7.20
2008,12,15,02,38,-7.20
2008,12,15,02,39,-7.20
2008,12,15,02,40,-7.20
2008,12,15,02,41,-7.20
2008,12,15,02,42,-7.10
2008,12,15,02,43,-7.10
2008,12,15,02,44,-7.10
2008,12,15,02,45,-7.10
2008,12,15,02,46,-7.10
2008,12,15,02,47,-7.20
2008,12,15,02,48,-7.20
2008,12,15,02,49,-7.20
2008,12,15,02,50,-7.30
2008,12,15,02,51,-7.30
2008,12,15,02,52,-7.30
2008,12,15,02,53,-7.30
2008,12,15,02,54,-7.30
2008,12,15,02,55,-7.30
2008,12,15,02,56,-7.40
2008,12,15,02,57,-7.40
2008,12,15,02,58,-7.40
2008,12,15,02,59,-7.60
2008,12,15,03,00,-7.60
2008,12,15,03,01,-7.60
2008,12,15,03,02,-7.60
2008,12,15,03,03,-7.60
2008,12,15,03,04,-7.60
2008,12,15,03,05,-7.70
2008,12,15,03,06,-7.70
2008,12,15,03,07,-7.80
2008,12,15,03,08,-7.80
2008,12,15,03,09,-7.80
2008,12,15,03,10,-7.80
2008,12,15,03,11,-7.80
2008,12,15,03,12,-7.80
2008,12,15,03,13,-7.90
2008,12,15,03,14,-7.90
2008,12,15,03,15,-7.90
2008,12,15,03,16,-7.90
2008,12,15,03,17,-7.90
2008,12,15,03,18,-7.90
2008,12,15,03,19,-8.00
2008,12,15,03,20,-8.10
2008,12,15,03,21,-8.10
2008,12,15,03,22,-8.10
2008,12,15,03,23,-8.10
2008,12,15,03,24,-8.10
2008,12,15,03,25,-8.20
2008,12,15,03,26,-8.20
2008,12,15,03,27,-8.20
2008,12,15,03,28,-8.20
2008,12,15,03,29,-8.20
2008,12,15,03,30,-8.20
2008,12,15,03,31,-8.30
2008,12,15,03,32,-8.40
2008,12,15,03,33,-8.40
2008,12,15,03,34,-8.40
2008,12,15,03,35,-8.50
2008,12,15,03,36,-8.60
2008,12,15,03,37,-8.60
2008,12,15,03,38,-8.70
2008,12,15,03,39,-8.80
2008,12,15,03,40,-8.80
2008,12,15,03,41,-8.80
2008,12,15,03,42,-8.90
2008,12,15,03,43,-9.00
2008,12,15,03,44,-9.10
2008,12,15,03,45,-9.10
2008,12,15,03,46,-9.10
2008,12,15,03,47,-9.10
2008,12,15,03,48,-9.10
2008,12,15,03,49,-9.10
2008,12,15,03,50,-9.10
2008,12,15,03,51,-9.10
2008,12,15,03,52,-9.00
2008,12,15,03,53,-8.90
2008,12,15,03,54,-8.90
2008,12,15,03,55,-8.90
2008,12,15,03,56,-8.90
2008,12,15,03,57,-8.90
2008,12,15,03,58,-8.90
2008,12,15,03,59,-8.90
2008,12,15,04,00,-8.80
2008,12,15,04,01,-8.80
2008,12,15,04,02,-8.80
2008,12,15,04,03,-8.90
2008,12,15,04,04,-8.90
2008,12,15,04,05,-8.90
2008,12,15,04,06,-8.90
2008,12,15,04,07,-8.90
2008,12,15,04,08,-9.00
2008,12,15,04,09,-9.10
2008,12,15,04,10,-9.10
2008,12,15,04,11,-9.10
2008,12,15,04,12,-9.10
2008,12,15,04,13,-9.10
2008,12,15,04,14,-9.10
2008,12,15,04,15,-9.10
2008,12,15,04,16,-9.10
2008,12,15,04,17,-9.10
2008,12,15,04,18,-9.20
2008,12,15,04,19,-9.20
2008,12,15,04,20,-9.20
2008,12,15,04,21,-9.20
2008,12,15,04,22,-9.20
2008,12,15,04,23,-9.20
2008,12,15,04,24,-9.20
2008,12,15,04,25,-9.20
2008,12,15,04,26,-9.20
2008,12,15,04,27,-9.20
2008,12,15,04,28,-9.20
2008,12,15,04,29,-9.20
2008,12,15,04,30,-9.20
2008,12,15,04,31,-9.20
2008,12,15,04,32,-9.20
2008,12,15,04,33,-9.30
2008,12,15,04,34,-9.30
2008,12,15,04,35,-9.30
2008,12,15,04,36,-9.20
2008,12,15,04,37,-9.20
2008,12,15,04,38,-9.20
2008,12,15,04,39,-9.20
2008,12,15,04,40,-9.20
2008,12,15,04,41,-9.20
2008,12,15,04,42,-9.20
2008,12,15,04,43,-9.20
2008,12,15,04,44,-9.20
2008,12,15,04,45,-9.20
2008,12,15,04,46,-9.20
2008,12,15,04,47,-9.20
2008,12,15,04,48,-9.20
2008,12,15,04,49,-9.10
2008,12,15,04,50,-9.10
2008,12,15,04,51,-9.10
2008,12,15,04,52,-9.10
2008,12,15,04,53,-9.10
2008,12,15,04,54,-9.10
2008,12,15,04,55,-9.10
2008,12,15,04,56,-9.10
2008,12,15,04,57,-9.10
2008,12,15,04,58,-9.10
2008,12,15,04,59,-9.10
2008,12,15,05,00,-9.10
2008,12,15,05,01,-9.10
2008,12,15,05,02,-9.10
2008,12,15,05,03,-9.10
2008,12,15,05,04,-9.10
2008,12,15,05,05,-9.10
2008,12,15,05,06,-9.10
2008,12,15,05,07,-9.10
2008,12,15,05,08,-9.10
2008,12,15,05,09,-9.10
2008,12,15,05,10,-9.10
2008,12,15,05,11,-9.10
2008,12,15,05,12,-9.10
2008,12,15,05,13,-9.10
2008,12,15,05,14,-9.10
2008,12,15,05,15,-9.10
2008,12,15,05,16,-9.10
2008,12,15,05,17,-9.10
2008,12,15,05,18,-9.10
2008,12,15,05,19,-9.10
2008,12,15,05,20,-9.10
2008,12,15,05,21,-9.10
2008,12,15,05,22,-9.10
2008,12,15,05,23,-9.10
2008,12,15,05,24,-9.10
2008,12,15,05,25,-9.10
2008,12,15,05,26,-8.90
2008,12,15,05,27,-8.90
2008,12,15,05,28,-8.90
2008,12,15,05,29,-8.90
2008,12,15,05,30,-8.90
2008,12,15,05,31,-8.90
2008,12,15,05,32,-8.90
2008,12,15,05,33,-8.90
2008,12,15,05,34,-8.90
2008,12,15,05,35,-8.80
2008,12,15,05,36,-8.80
2008,12,15,05,37,-8.80
2008,12,15,05,38,-8.80
2008,12,15,05,39,-8.80
2008,12,15,05,40,-8.80
2008,12,15,05,41,-8.80
2008,12,15,05,42,-8.80
2008,12,15,05,43,-8.80
2008,12,15,05,44,-8.80
2008,12,15,05,45,-8.80
2008,12,15,05,46,-8.80
2008,12,15,05,47,-8.70
2008,12,15,05,48,-8.70
2008,12,15,05,49,-8.60
2008,12,15,05,50,-8.60
2008,12,15,05,51,-8.60
2008,12,15,05,52,-8.50
2008,12,15,05,53,-8.50
2008,12,15,05,54,-8.50
2008,12,15,05,55,-8.50
2008,12,15,05,56,-8.50
2008,12,15,05,57,-8.50
2008,12,15,05,58,-8.50
2008,12,15,05,59,-8.50
2008,12,15,06,00,-8.50
2008,12,15,06,01,-8.60
2008,12,15,06,02,-8.60
2008,12,15,06,03,-8.60
2008,12,15,06,04,-8.60
2008,12,15,06,05,-8.60
2008,12,15,06,06,-8.60
2008,12,15,06,07,-8.60
2008,12,15,06,08,-8.60
2008,12,15,06,09,-8.60
2008,12,15,06,10,-8.60
2008,12,15,06,11,-8.60
2008,12,15,06,12,-8.60
2008,12,15,06,13,-8.70
2008,12,15,06,14,-8.70
2008,12,15,06,15,-8.70
2008,12,15,06,16,-8.70
2008,12,15,06,17,-8.70
2008,12,15,06,18,-8.70
2008,12,15,06,19,-8.70
2008,12,15,06,20,-8.70
2008,12,15,06,21,-8.70
2008,12,15,06,22,-8.70
2008,12,15,06,23,-8.70
2008,12,15,06,24,-8.70
2008,12,15,06,25,-8.70
2008,12,15,06,26,-8.60
2008,12,15,06,27,-8.50
2008,12,15,06,28,-8.50
2008,12,15,06,29,-8.40
2008,12,15,06,30,-8.30
2008,12,15,06,31,-8.20
2008,12,15,06,32,-8.20
2008,12,15,06,33,-8.10
2008,12,15,06,34,-8.10
2008,12,15,06,35,-8.00
2008,12,15,06,36,-7.90
2008,12,15,06,37,-7.90
2008,12,15,06,38,-7.90
2008,12,15,06,39,-7.90
2008,12,15,06,40,-7.80
2008,12,15,06,41,-7.80
2008,12,15,06,42,-7.80
2008,12,15,06,43,-7.80
2008,12,15,06,44,-7.80
2008,12,15,06,45,-7.80
2008,12,15,06,46,-7.80
2008,12,15,06,47,-7.80
2008,12,15,06,48,-7.90
2008,12,15,06,49,-7.90
2008,12,15,06,50,-7.90
2008,12,15,06,51,-7.90
2008,12,15,06,52,-7.90
2008,12,15,06,53,-7.90
2008,12,15,06,54,-7.90
2008,12,15,06,55,-7.90
2008,12,15,06,56,-7.90
2008,12,15,06,57,-7.90
2008,12,15,06,58,-7.90
2008,12,15,06,59,-7.90
2008,12,15,07,00,-7.90
2008,12,15,07,01,-8.10
2008,12,15,07,02,-8.10
2008,12,15,07,03,-8.10
2008,12,15,07,04,-8.00
2008,12,15,07,05,-7.90
2008,12,15,07,06,-7.90
2008,12,15,07,07,-7.90
2008,12,15,07,08,-7.90
2008,12,15,07,09,-7.90
2008,12,15,07,10,-7.90
2008,12,15,07,11,-7.90
2008,12,15,07,12,-7.90
2008,12,15,07,13,-7.90
2008,12,15,07,14,-7.90
2008,12,15,07,15,-7.90
2008,12,15,07,16,-7.90
2008,12,15,07,17,-7.90
2008,12,15,07,18,-7.90
2008,12,15,07,19,-7.90
2008,12,15,07,20,-7.90
2008,12,15,07,21,-7.90
2008,12,15,07,22,-7.90
2008,12,15,07,23,-7.90
2008,12,15,07,24,-7.90
2008,12,15,07,25,-7.90
2008,12,15,07,26,-7.90
2008,12,15,07,27,-7.90
2008,12,15,07,28,-7.90
2008,12,15,07,29,-7.90
2008,12,15,07,30,-7.90
2008,12,15,07,31,-7.80
2008,12,15,07,32,-7.80
2008,12,15,07,33,-7.80
2008,12,15,07,34,-7.80
2008,12,15,07,35,-7.80
2008,12,15,07,36,-7.80
2008,12,15,07,37,-7.80
2008,12,15,07,38,-7.80
2008,12,15,07,39,-7.80
2008,12,15,07,40,-7.80
2008,12,15,07,41,-7.90
2008,12,15,07,42,-7.90
2008,12,15,07,43,-7.90
2008,12,15,07,44,-7.90
2008,12,15,07,45,-7.90
2008,12,15,07,46,-7.90
2008,12,15,07,47,-8.10
2008,12,15,07,48,-8.10
2008,12,15,07,49,-8.10
2008,12,15,07,50,-8.10
2008,12,15,07,51,-8.10
2008,12,15,07,52,-8.10
2008,12,15,07,53,-8.10
2008,12,15,07,54,-8.10
2008,12,15,07,55,-8.10
2008,12,15,07,56,-8.10
2008,12,15,07,57,-8.10
2008,12,15,07,58,-8.10
2008,12,15,07,59,-8.10
2008,12,15,08,00,-8.10
2008,12,15,08,01,-8.10
2008,12,15,08,02,-8.10
2008,12,15,08,03,-8.10
2008,12,15,08,04,-8.10
2008,12,15,08,05,-8.20
2008,12,15,08,06,-8.20
2008,12,15,08,07,-8.20
2008,12,15,08,08,-8.20
2008,12,15,08,09,-8.20
2008,12,15,08,10,-8.10
2008,12,15,08,11,-8.10
2008,12,15,08,12,-8.10
2008,12,15,08,13,-8.10
2008,12,15,08,14,-8.10
2008,12,15,08,15,-8.10
2008,12,15,08,16,-8.10
2008,12,15,08,17,-8.10
2008,12,15,08,18,-8.00
2008,12,15,08,19,-7.90
2008,12,15,08,20,-7.90
2008,12,15,08,21,-7.90
2008,12,15,08,22,-7.90
2008,12,15,08,23,-7.90
2008,12,15,08,24,-7.90
2008,12,15,08,25,-7.90
2008,12,15,08,26,-8.00
2008,12,15,08,27,-8.10
2008,12,15,08,28,-8.10
2008,12,15,08,29,-8.10
2008,12,15,08,30,-8.10
2008,12,15,08,31,-8.20
2008,12,15,08,32,-8.20
2008,12,15,08,33,-8.20
2008,12,15,08,34,-8.20
2008,12,15,08,35,-8.20
2008,12,15,08,36,-8.20
2008,12,15,08,37,-8.20
2008,12,15,08,38,-8.20
2008,12,15,08,39,-8.20
2008,12,15,08,40,-8.20
2008,12,15,08,41,-8.20
2008,12,15,08,42,-8.20
2008,12,15,08,43,-8.20
2008,12,15,08,44,-8.20
2008,12,15,08,45,-8.20
2008,12,15,08,46,-8.20
2008,12,15,08,47,-8.20
2008,12,15,08,48,-8.20
2008,12,15,08,49,-8.30
2008,12,15,08,50,-8.30
2008,12,15,08,51,-8.30
2008,12,15,08,52,-8.20
2008,12,15,08,53,-8.20
2008,12,15,08,54,-8.20
2008,12,15,08,55,-8.20
2008,12,15,08,56,-8.20
2008,12,15,08,57,-8.20
2008,12,15,08,58,-8.20
2008,12,15,08,59,-8.20
2008,12,15,09,00,-8.20
2008,12,15,09,01,-8.10
2008,12,15,09,02,-8.10
2008,12,15,09,03,-8.00
2008,12,15,09,04,-7.90
2008,12,15,09,05,-7.90
2008,12,15,09,06,-7.90
2008,12,15,09,07,-7.90
2008,12,15,09,08,-7.90
2008,12,15,09,09,-7.90
2008,12,15,09,10,-7.90
2008,12,15,09,11,-7.80
2008,12,15,09,12,-7.80
2008,12,15,09,13,-7.80
2008,12,15,09,14,-7.80
2008,12,15,09,15,-7.80
2008,12,15,09,16,-7.80
2008,12,15,09,17,-7.70
2008,12,15,09,18,-7.70
2008,12,15,09,19,-7.70
2008,12,15,09,20,-7.60
2008,12,15,09,21,-7.60
2008,12,15,09,22,-7.60
2008,12,15,09,23,-7.60
2008,12,15,09,24,-7.60
2008,12,15,09,25,-7.60
2008,12,15,09,26,-7.60
2008,12,15,09,27,-7.60
2008,12,15,09,28,-7.50
2008,12,15,09,29,-7.40
2008,12,15,09,30,-7.40
2008,12,15,09,31,-7.30
2008,12,15,09,32,-7.30
2008,12,15,09,33,-7.30
2008,12,15,09,34,-7.30
2008,12,15,09,35,-7.30
2008,12,15,09,36,-7.20
2008,12,15,09,37,-7.10
2008,12,15,09,38,-7.10
2008,12,15,09,39,-7.10
2008,12,15,09,40,-7.00
2008,12,15,09,41,-7.00
2008,12,15,09,42,-6.90
2008,12,15,09,43,-6.90
2008,12,15,09,44,-6.80
2008,12,15,09,45,-6.80
2008,12,15,09,46,-6.70
2008,12,15,09,47,-6.70
2008,12,15,09,48,-6.70
2008,12,15,09,49,-6.60
2008,12,15,09,50,-6.50
2008,12,15,09,51,-6.50
2008,12,15,09,52,-6.40
2008,12,15,09,53,-6.30
2008,12,15,09,54,-6.20
2008,12,15,09,55,-6.10
2008,12,15,09,56,-6.10
2008,12,15,09,57,-5.90
2008,12,15,09,58,-5.90
2008,12,15,09,59,-5.80
2008,12,15,10,00,-5.80
2008,12,15,10,01,-5.70
2008,12,15,10,02,-5.60
2008,12,15,10,03,-5.50
2008,12,15,10,04,-5.50
2008,12,15,10,05,-5.40
2008,12,15,10,06,-5.30
2008,12,15,10,07,-5.30
2008,12,15,10,08,-5.30
2008,12,15,10,09,-5.30
2008,12,15,10,10,-5.20
2008,12,15,10,11,-5.20
2008,12,15,10,12,-5.20
2008,12,15,10,13,-5.10
2008,12,15,10,14,-5.10
2008,12,15,10,15,-5.00
2008,12,15,10,16,-4.90
2008,12,15,10,17,-4.90
2008,12,15,10,18,-4.80
2008,12,15,10,19,-4.70
2008,12,15,10,20,-4.60
2008,12,15,10,21,-4.60
2008,12,15,10,22,-4.50
2008,12,15,10,23,-4.50
2008,12,15,10,24,-4.50
2008,12,15,10,25,-4.50
2008,12,15,10,26,-4.40
2008,12,15,10,27,-4.40
2008,12,15,10,28,-4.40
2008,12,15,10,29,-4.40
2008,12,15,10,30,-4.30
2008,12,15,10,31,-4.20
2008,12,15,10,32,-4.20
2008,12,15,10,33,-4.10
2008,12,15,10,34,-4.10
2008,12,15,10,35,-4.00
2008,12,15,10,36,-3.90
2008,12,15,10,37,-3.80
2008,12,15,10,38,-3.70
2008,12,15,10,39,-3.70
2008,12,15,10,40,-3.70
2008,12,15,10,41,-3.70
2008,12,15,10,42,-3.70
2008,12,15,10,43,-3.60
2008,12,15,10,44,-3.60
2008,12,15,10,45,-3.60
2008,12,15,10,46,-3.60
2008,12,15,10,47,-3.60
2008,12,15,10,48,-3.60
2008,12,15,10,49,-3.60
2008,12,15,10,50,-3.50
2008,12,15,10,51,-3.50
2008,12,15,10,52,-3.50
2008,12,15,10,53,-3.50
2008,12,15,10,54,-3.50
2008,12,15,10,55,-3.30
2008,12,15,10,56,-3.30
2008,12,15,10,57,-3.30
2008,12,15,10,58,-3.30
2008,12,15,10,59,-3.30
2008,12,15,11,00,-3.30
2008,12,15,11,01,-3.20
2008,12,15,11,02,-3.20
2008,12,15,11,03,-3.10
2008,12,15,11,04,-3.00
2008,12,15,11,05,-3.00
2008,12,15,11,06,-3.00
2008,12,15,11,07,-3.00
2008,12,15,11,08,-3.00
2008,12,15,11,09,-2.90
2008,12,15,11,10,-2.90
2008,12,15,11,11,-2.90
2008,12,15,11,12,-2.80
2008,12,15,11,13,-2.80
2008,12,15,11,14,-2.80
2008,12,15,11,15,-2.80
2008,12,15,11,16,-2.70
2008,12,15,11,17,-2.70
2008,12,15,11,18,-2.70
2008,12,15,11,19,-2.80
2008,12,15,11,20,-2.80
2008,12,15,11,21,-2.80
2008,12,15,11,22,-2.80
2008,12,15,11,23,-2.70
2008,12,15,11,24,-2.60
2008,12,15,11,25,-2.60
2008,12,15,11,26,-2.60
2008,12,15,11,27,-2.50
2008,12,15,11,28,-2.50
2008,12,15,11,29,-2.50
2008,12,15,11,30,-2.50
2008,12,15,11,31,-2.40
2008,12,15,11,32,-2.40
2008,12,15,11,33,-2.40
2008,12,15,11,34,-2.40
2008,12,15,11,35,-2.40
2008,12,15,11,36,-2.40
2008,12,15,11,37,-2.30
2008,12,15,11,38,-2.30
2008,12,15,11,39,-2.20
2008,12,15,11,40,-2.20
2008,12,15,11,41,-2.10
2008,12,15,11,42,-2.10
2008,12,15,11,43,-2.10
2008,12,15,11,44,-2.10
2008,12,15,11,45,-2.10
2008,12,15,11,46,-2.10
2008,12,15,11,47,-2.00
2008,12,15,11,48,-2.00
2008,12,15,11,49,-1.90
2008,12,15,11,50,-1.90
2008,12,15,11,51,-2.00
2008,12,15,11,52,-2.00
2008,12,15,11,53,-2.00
2008,12,15,11,54,-1.90
2008,12,15,11,55,-1.90
2008,12,15,11,56,-1.90
2008,12,15,11,57,-1.80
2008,12,15,11,58,-1.80
2008,12,15,11,59,-1.80
2008,12,15,12,00,-1.80
2008,12,15,12,01,-1.80
2008,12,15,12,02,-1.80
2008,12,15,12,03,-1.80
2008,12,15,12,04,-1.80
2008,12,15,12,05,-1.90
2008,12,15,12,06,-1.90
2008,12,15,12,07,-1.90
2008,12,15,12,08,-1.80
2008,12,15,12,09,-1.80
2008,12,15,12,10,-1.80
2008,12,15,12,11,-1.80
2008,12,15,12,12,-1.80
2008,12,15,12,13,-1.80
2008,12,15,12,14,-1.80
2008,12,15,12,15,-1.80
2008,12,15,12,16,-1.80
2008,12,15,12,17,-1.80
2008,12,15,12,18,-1.80
2008,12,15,12,19,-1.80
2008,12,15,12,20,-1.80
2008,12,15,12,21,-1.80
2008,12,15,12,22,-1.70
2008,12,15,12,23,-1.70
2008,12,15,12,24,-1.70
2008,12,15,12,25,-1.70
2008,12,15,12,26,-1.70
2008,12,15,12,27,-1.70
2008,12,15,12,28,-1.70
2008,12,15,12,29,-1.70
2008,12,15,12,30,-1.70
2008,12,15,12,31,-1.60
2008,12,15,12,32,-1.60
2008,12,15,12,33,-1.60
2008,12,15,12,34,-1.50
2008,12,15,12,35,-1.50
2008,12,15,12,36,-1.40
2008,12,15,12,37,-1.40
2008,12,15,12,38,-1.40
2008,12,15,12,39,-1.40
2008,12,15,12,40,-1.40
2008,12,15,12,41,-1.40
2008,12,15,12,42,-1.40
2008,12,15,12,43,-1.30
2008,12,15,12,44,-1.30
2008,12,15,12,45,-1.20
2008,12,15,12,46,-1.10
2008,12,15,12,47,-1.10
2008,12,15,12,48,-1.10
2008,12,15,12,49,-1.10
2008,12,15,12,50,-1.10
2008,12,15,12,51,-1.10
2008,12,15,12,52,-1.10
2008,12,15,12,53,-1.10
2008,12,15,12,54,-1.10
2008,12,15,12,55,-1.10
2008,12,15,12,56,-1.10
2008,12,15,12,57,-1.00
2008,12,15,12,58,-0.90
2008,12,15,12,59,-0.90
2008,12,15,13,00,-0.90
2008,12,15,13,01,-0.90
2008,12,15,13,02,-0.90
2008,12,15,13,03,-0.80
2008,12,15,13,04,-0.80
2008,12,15,13,05,-0.80
2008,12,15,13,06,-0.80
2008,12,15,13,07,-0.80
2008,12,15,13,08,-0.80
2008,12,15,13,09,-0.80
2008,12,15,13,10,-0.90
2008,12,15,13,11,-0.90
2008,12,15,13,12,-0.90
2008,12,15,13,13,-0.90
2008,12,15,13,14,-0.90
2008,12,15,13,15,-0.90
2008,12,15,13,16,-1.00
2008,12,15,13,17,-1.10
2008,12,15,13,18,-1.10
2008,12,15,13,19,-1.10
2008,12,15,13,20,-1.10
2008,12,15,13,21,-1.10
2008,12,15,13,22,-1.10
2008,12,15,13,23,-1.10
2008,12,15,13,24,-1.10
2008,12,15,13,25,-1.10
2008,12,15,13,26,-1.10
2008,12,15,13,27,-1.10
2008,12,15,13,28,-1.10
2008,12,15,13,29,-1.10
2008,12,15,13,30,-1.10
2008,12,15,13,31,-1.10
2008,12,15,13,32,-1.20
2008,12,15,13,33,-1.20
2008,12,15,13,34,-1.20
2008,12,15,13,35,-1.10
2008,12,15,13,36,-1.10
2008,12,15,13,37,-1.10
2008,12,15,13,38,-1.10
2008,12,15,13,39,-1.10
2008,12,15,13,40,-1.10
2008,12,15,13,41,-1.10
2008,12,15,13,42,-1.10
2008,12,15,13,43,-0.90
2008,12,15,13,44,-0.90
2008,12,15,13,45,-0.90
2008,12,15,13,46,-0.90
2008,12,15,13,47,-0.90
2008,12,15,13,48,-0.90
2008,12,15,13,49,-0.90
2008,12,15,13,50,-0.90
2008,12,15,13,51,-0.90
2008,12,15,13,52,-0.90
2008,12,15,13,53,-0.90
2008,12,15,13,54,-0.90
2008,12,15,13,55,-0.90
2008,12,15,13,56,-0.90
2008,12,15,13,57,-0.90
2008,12,15,13,58,-0.90
2008,12,15,13,59,-0.90
2008,12,15,14,00,-0.90
2008,12,15,14,01,-0.90
2008,12,15,14,02,-0.90
2008,12,15,14,03,-0.90
2008,12,15,14,04,-1.00
2008,12,15,14,05,-1.10
2008,12,15,14,06,-1.10
2008,12,15,14,07,-1.10
2008,12,15,14,08,-1.20
2008,12,15,14,09,-1.30
2008,12,15,14,10,-1.30
2008,12,15,14,11,-1.40
2008,12,15,14,12,-1.40
2008,12,15,14,13,-1.40
2008,12,15,14,14,-1.50
2008,12,15,14,15,-1.50
2008,12,15,14,16,-1.60
2008,12,15,14,17,-1.60
2008,12,15,14,18,-1.60
2008,12,15,14,19,-1.60
2008,12,15,14,20,-1.60
2008,12,15,14,21,-1.60
2008,12,15,14,22,-1.70
2008,12,15,14,23,-1.70
2008,12,15,14,24,-1.70
2008,12,15,14,25,-1.80
2008,12,15,14,26,-1.80
2008,12,15,14,27,-1.70
2008,12,15,14,28,-1.70
2008,12,15,14,29,-1.60
2008,12,15,14,30,-1.60
2008,12,15,14,31,-1.50
2008,12,15,14,32,-1.50
2008,12,15,14,33,-1.40
2008,12,15,14,34,-1.40
2008,12,15,14,35,-1.40
2008,12,15,14,36,-1.40
2008,12,15,14,37,-1.30
2008,12,15,14,38,-1.30
2008,12,15,14,39,-1.30
2008,12,15,14,40,-1.30
2008,12,15,14,41,-1.30
2008,12,15,14,42,-1.30
2008,12,15,14,43,-1.30
2008,12,15,14,44,-1.40
2008,12,15,14,45,-1.40
2008,12,15,14,46,-1.40
2008,12,15,14,47,-1.50
2008,12,15,14,48,-1.60
2008,12,15,14,49,-1.60
2008,12,15,14,50,-1.70
2008,12,15,14,51,-1.70
2008,12,15,14,52,-1.60
2008,12,15,14,53,-1.60
2008,12,15,14,54,-1.60
2008,12,15,14,55,-1.50
2008,12,15,14,56,-1.50
2008,12,15,14,57,-1.50
2008,12,15,14,58,-1.50
2008,12,15,14,59,-1.50
2008,12,15,15,00,-1.50
2008,12,15,15,01,-1.50
2008,12,15,15,02,-1.50
2008,12,15,15,03,-1.50
2008,12,15,15,04,-1.50
2008,12,15,15,05,-1.60
2008,12,15,15,06,-1.60
2008,12,15,15,07,-1.60
2008,12,15,15,08,-1.60
2008,12,15,15,09,-1.70
2008,12,15,15,10,-1.70
2008,12,15,15,11,-1.70
2008,12,15,15,12,-1.70
2008,12,15,15,13,-1.80
2008,12,15,15,14,-1.80
2008,12,15,15,15,-1.80
2008,12,15,15,16,-1.90
2008,12,15,15,17,-1.90
2008,12,15,15,18,-2.00
2008,12,15,15,19,-2.00
2008,12,15,15,20,-2.10
2008,12,15,15,21,-2.10
2008,12,15,15,22,-2.20
2008,12,15,15,23,-2.20
2008,12,15,15,24,-2.20
2008,12,15,15,25,-2.30
2008,12,15,15,26,-2.30
2008,12,15,15,27,-2.30
2008,12,15,15,28,-2.30
2008,12,15,15,29,-2.30
2008,12,15,15,30,-2.30
2008,12,15,15,31,-2.30
2008,12,15,15,32,-2.30
2008,12,15,15,33,-2.30
2008,12,15,15,34,-2.40
2008,12,15,15,35,-2.40
2008,12,15,15,36,-2.50
2008,12,15,15,37,-2.50
2008,12,15,15,38,-2.50
2008,12,15,15,39,-2.50
2008,12,15,15,40,-2.60
2008,12,15,15,41,-2.60
2008,12,15,15,42,-2.60
2008,12,15,15,43,-2.60
2008,12,15,15,44,-2.70
2008,12,15,15,45,-2.80
2008,12,15,15,46,-2.80
2008,12,15,15,47,-2.80
2008,12,15,15,48,-2.80
2008,12,15,15,49,-2.80
2008,12,15,15,50,-2.80
2008,12,15,15,51,-2.80
2008,12,15,15,52,-2.80
2008,12,15,15,53,-2.90
2008,12,15,15,54,-2.90
2008,12,15,15,55,-2.90
2008,12,15,15,56,-2.90
2008,12,15,15,57,-3.00
2008,12,15,15,58,-3.00
2008,12,15,15,59,-3.00
2008,12,15,16,00,-3.00
2008,12,15,16,01,-3.00
2008,12,15,16,02,-3.10
2008,12,15,16,03,-3.10
2008,12,15,16,04,-3.10
2008,12,15,16,05,-3.10
2008,12,15,16,06,-3.20
2008,12,15,16,07,-3.20
2008,12,15,16,08,-3.30
2008,12,15,16,09,-3.30
2008,12,15,16,10,-3.40
2008,12,15,16,11,-3.40
2008,12,15,16,12,-3.50
2008,12,15,16,13,-3.50
2008,12,15,16,14,-3.60
2008,12,15,16,15,-3.60
2008,12,15,16,16,-3.70
2008,12,15,16,17,-3.70
2008,12,15,16,18,-3.70
2008,12,15,16,19,-3.70
2008,12,15,16,20,-3.80
2008,12,15,16,21,-3.80
2008,12,15,16,22,-3.90
2008,12,15,16,23,-3.90
2008,12,15,16,24,-3.90
2008,12,15,16,25,-4.00
2008,12,15,16,26,-4.00
2008,12,15,16,27,-4.00
2008,12,15,16,28,-4.10
2008,12,15,16,29,-4.10
2008,12,15,16,30,-4.20
2008,12,15,16,31,-4.20
2008,12,15,16,32,-4.20
2008,12,15,16,33,-4.20
2008,12,15,16,34,-4.20
2008,12,15,16,35,-4.30
2008,12,15,16,36,-4.30
2008,12,15,16,37,-4.30
2008,12,15,16,38,-4.40
2008,12,15,16,39,-4.40
2008,12,15,16,40,-4.40
2008,12,15,16,41,-4.40
2008,12,15,16,42,-4.50
2008,12,15,16,43,-4.50
2008,12,15,16,44,-4.50
2008,12,15,16,45,-4.50
2008,12,15,16,46,-4.60
2008,12,15,16,47,-4.60
2008,12,15,16,48,-4.60
2008,12,15,16,49,-4.60
2008,12,15,16,50,-4.60
2008,12,15,16,51,-4.70
2008,12,15,16,52,-4.70
2008,12,15,16,53,-4.70
2008,12,15,16,54,-4.70
2008,12,15,16,55,-4.70
2008,12,15,16,56,-4.70
2008,12,15,16,57,-4.70
2008,12,15,16,58,-4.80
2008,12,15,16,59,-4.80
2008,12,15,17,00,-4.80
2008,12,15,17,01,-4.80
2008,12,15,17,02,-4.80
2008,12,15,17,03,-4.90
2008,12,15,17,04,-4.90
2008,12,15,17,05,-4.90
2008,12,15,17,06,-4.90
2008,12,15,17,07,-4.90
2008,12,15,17,08,-4.90
2008,12,15,17,09,-5.00
2008,12,15,17,10,-5.00
2008,12,15,17,11,-5.00
2008,12,15,17,12,-5.00
2008,12,15,17,13,-5.00
2008,12,15,17,14,-5.00
2008,12,15,17,15,-5.00
2008,12,15,17,16,-5.00
2008,12,15,17,17,-5.00
2008,12,15,17,18,-5.00
2008,12,15,17,19,-5.00
2008,12,15,17,20,-5.00
2008,12,15,17,21,-4.90
2008,12,15,17,22,-4.90
2008,12,15,17,23,-4.90
2008,12,15,17,24,-4.90
2008,12,15,17,25,-4.90
2008,12,15,17,26,-4.90
2008,12,15,17,27,-4.80
2008,12,15,17,28,-4.80
2008,12,15,17,29,-4.80
2008,12,15,17,30,-4.80
2008,12,15,17,31,-4.90
2008,12,15,17,32,-4.90
2008,12,15,17,33,-4.90
2008,12,15,17,34,-4.90
2008,12,15,17,35,-4.90
2008,12,15,17,36,-4.90
2008,12,15,17,37,-4.90
2008,12,15,17,38,-4.90
2008,12,15,17,39,-4.90
2008,12,15,17,40,-4.90
2008,12,15,17,41,-4.90
2008,12,15,17,42,-4.90
2008,12,15,17,43,-4.90
2008,12,15,17,44,-4.90
2008,12,15,17,45,-4.90
2008,12,15,17,46,-4.90
2008,12,15,17,47,-4.90
2008,12,15,17,48,-5.00
2008,12,15,17,49,-5.00
2008,12,15,17,50,-5.00
2008,12,15,17,51,-5.10
2008,12,15,17,52,-5.10
2008,12,15,17,53,-5.20
2008,12,15,17,54,-5.30
2008,12,15,17,55,-5.30
2008,12,15,17,56,-5.30
2008,12,15,17,57,-5.40
2008,12,15,17,58,-5.40
2008,12,15,17,59,-5.50
2008,12,15,18,00,-5.60
2008,12,15,18,01,-5.60
2008,12,15,18,02,-5.70
2008,12,15,18,03,-5.70
2008,12,15,18,04,-5.80
2008,12,15,18,05,-5.80
2008,12,15,18,06,-5.80
2008,12,15,18,07,-5.90
2008,12,15,18,08,-5.90